Miscellaneous Local Product
Issued by NWS North Platte, NE

Home | Current Version | Previous Version | Graphics & Text | Print | Product List | Glossary On
Versions: 1 2 3 4 5 6 7 8 9 10 11 12 13 14 15 16 17 18 19 20 21 22 23 24 25 26 27 28 29 30 31 32 33 34 35 36 37 38 39 40 41 42 43 44 45 46 47 48 49 50
000
AXUS43 KLBF 281510
MISLBF


WESTERN AND NORTH CENTRAL NEBRASKA HOURLY WEATHER ROUNDUP
NATIONAL WEATHER SERVICE NORTH PLATTE NE
1000 AM CDT THU APR 28 2016

NOTE: "FAIR" INDICATES FEW OR NO CLOUDS BELOW 12,000 FEET WITH NO
SIGNIFICANT WEATHER AND/OR OBSTRUCTIONS TO VISIBILITY.

NOTE: STATIONS NOT REPORTING VARIABLES SUCH AS SKY/WEATHER OR
PRESSURE ARE PROVIDED BY RAWS AND APRS NETWORKS AND ARE NOT UNDER
NATIONAL WEATHER SERVICE QUALITY CONTROL.

...OBSERVATIONS IN AND NEAR THE EASTERN PANHANDLE OF NEBRASKA...

CITY           SKY/WX    TMP DP  RH WIND       PRES   REMARKS
PINE RIDGE     CLOUDY    34  31  88 N8        30.02R WCI  27
CHADRON        CLOUDY    36  32  85 N8        30.04R WCI  30
ALLIANCE       CLOUDY    33  29  85 N14       30.00R WCI  23
SIDNEY         CLOUDY    35  28  75 N14       30.00R WCI  26
CRESCENT LAKE    N/A     35  30  82 N13G25      N/A  WCI  26
BIG SPRINGS      N/A     35  32  89 N5          N/A  WCI  31
$$

...OBSERVATIONS IN NORTHERN NEBRASKA AND FAR SOUTHERN SOUTH DAKOTA...

CITY           SKY/WX    TMP DP  RH WIND       PRES   REMARKS
WINNER         CLOUDY    39  35  86 NW10      30.00R WCI  32
VALENTINE      CLOUDY    37  34  89 N13       30.00R WCI  29
THEDFORD       CLOUDY    37  34  91 NW14      30.01R WCI  28
AINSWORTH      CLOUDY    37  37  99 NW15      29.98R WCI  28
O`NEILL        CLOUDY    41  39  95 NW15      29.95S
ORD            CLOUDY    41  38  89 NW14      29.96R
BROKEN BOW     CLOUDY    38  36  92 NW15      29.97R WCI  29
VALENTINE NWR    N/A     33  33  99 N14         N/A  WCI  23
BUTTE            N/A     37  36  97 N12         N/A  WCI  29
HALSEY           N/A     34  33  98 NW6         N/A  WCI  29
CHAMBERS         N/A     42  40  94 N8          N/A
EWING            N/A     42  40  94 N12G18      N/A
$$

...OBSERVATIONS IN SOUTHWEST NEBRASKA AND FAR NORTHEAST COLORADO...

CITY           SKY/WX    TMP DP  RH WIND       PRES   REMARKS
IMPERIAL       MOSUNNY   39  30  70 N12       30.01R WCI  32
OGALLALA       PTSUNNY   40  29  63 N13       30.01R WCI  33
NORTH PLATTE   SUNNY     42  33  70 N16       29.99R
MCCOOK         SUNNY     44  32  62 N12G17    30.00F
LEXINGTON      SUNNY     44  37  75 N16G23    29.98R
PAXTON           N/A     37  33  84 NW12        N/A  WCI  29
STAPLETON        N/A     38  33  84 MISG        N/A
GOTHENBURG       N/A     39  31  75 N13         N/A  WCI  31
CALLAWAY         N/A     38  35  89 N12         N/A  WCI  30
$$

...OBSERVATIONS IN CENTRAL LINCOLN COUNTY AREA...

CITY           SKY/WX    TMP DP  RH WIND       PRES   REMARKS
N.P. AIRPORT   SUNNY     42  33  70 N16       29.99R
N.P. DOWNTOWN    N/A     41  34  76 N10G17      N/A
N.P. SOUTHEAST   N/A     41  33  72 N9G16       N/A
N.P. HILLCREST   N/A     41  34  77 N16         N/A
$$

...SOME OBSERVATIONS FROM AROUND THE REGION...

CITY           SKY/WX    TMP DP  RH WIND       PRES   REMARKS
DENVER         CLOUDY    37  26  64 E8        29.97R WCI  31
LARAMIE        CLOUDY    28  23  81 NE9       29.91S WCI  19
CHEYENNE       CLOUDY    32  27  81 NE10      29.95S WCI  24
SCOTTSBLUFF    PTSUNNY   39  27  62 N10       30.01R WCI  32
RAPID CITY     CLOUDY    33  32  96 N8        30.03S FOG     WCI  26
BISMARCK       CLOUDY    43  34  70 N3        30.11R
PIERRE         CLOUDY    38  34  85 N9        30.02R WCI  31
SIOUX FALLS    LGT RAIN  40  37  89 N9        29.92R WCI  34
OMAHA          CLOUDY    47  43  86 NW12      29.87R
GRAND ISLAND   CLOUDY    43  40  89 NW14G24   29.95R
KANSAS CITY    CLOUDY    50  44  80 W13       29.90R
WICHITA        MOSUNNY   52  36  54 N16       29.97S
OKLAHOMA CITY  MOSUNNY   61  42  49 NE14      29.96R
DALLAS         MOSUNNY   73  55  53 E12       29.90R
AMARILLO       MOSUNNY   57  41  55 E23       29.89S
DODGE CITY     CLOUDY    46  31  55 N18       30.00R
HAYS           CLOUDY    46  28  49 N13G20    30.00F
GOODLAND       CLOUDY    40  29  64 N16       30.00S WCI  31
$$




USA.gov is the U.S. government's official web portal to all federal, state and local government web resources and services.